TimePDT,TemperatureF,Dew PointF,Humidity,Sea Level PressureIn,VisibilityMPH,Wind Direction,Wind SpeedMPH,Gust SpeedMPH,PrecipitationIn,Events,Conditions,WindDirDegrees,DateUTC
12:15 AM,46.4,30.2,53,30.20,10.0,Calm,Calm,-,N/A,,Clear,0,2013-07-13 07:15:00
12:35 AM,46.4,32.0,57,30.20,10.0,Calm,Calm,-,N/A,,Clear,0,2013-07-13 07:35:00
12:55 AM,44.6,28.4,53,30.20,10.0,Calm,Calm,-,N/A,,Clear,0,2013-07-13 07:55:00
1:15 AM,42.8,30.2,61,30.21,10.0,Calm,Calm,-,N/A,,Clear,0,2013-07-13 08:15:00
1:35 AM,39.2,32.0,75,30.20,10.0,Calm,Calm,-,N/A,,Clear,0,2013-07-13 08:35:00
1:55 AM,39.2,30.2,70,30.20,10.0,Calm,Calm,-,N/A,,Clear,0,2013-07-13 08:55:00
2:15 AM,39.2,32.0,75,30.20,10.0,Calm,Calm,-,N/A,,Clear,0,2013-07-13 09:15:00
2:35 AM,39.2,32.0,75,30.20,10.0,Calm,Calm,-,N/A,,Clear,0,2013-07-13 09:35:00
2:55 AM,37.4,30.2,75,30.20,10.0,Calm,Calm,-,N/A,,Clear,0,2013-07-13 09:55:00
3:15 AM,39.2,28.4,65,30.20,10.0,Calm,Calm,-,N/A,,Clear,0,2013-07-13 10:15:00
3:35 AM,39.2,26.6,61,30.20,10.0,Calm,Calm,-,N/A,,Clear,0,2013-07-13 10:35:00
3:55 AM,35.6,28.4,75,30.20,10.0,Calm,Calm,-,N/A,,Clear,0,2013-07-13 10:55:00
4:15 AM,35.6,28.4,75,30.20,10.0,Calm,Calm,-,N/A,,Clear,0,2013-07-13 11:15:00
4:35 AM,35.6,30.2,81,30.21,10.0,Calm,Calm,-,N/A,,Clear,0,2013-07-13 11:35:00
4:55 AM,35.6,28.4,75,30.21,10.0,Calm,Calm,-,N/A,,Clear,0,2013-07-13 11:55:00
5:15 AM,35.6,28.4,75,30.21,10.0,Calm,Calm,-,N/A,,Clear,0,2013-07-13 12:15:00
5:35 AM,35.6,28.4,75,30.21,10.0,Calm,Calm,-,N/A,,Clear,0,2013-07-13 12:35:00
5:55 AM,32.0,26.6,80,30.22,10.0,Calm,Calm,-,N/A,,Clear,0,2013-07-13 12:55:00
6:15 AM,33.8,28.4,81,30.22,10.0,Calm,Calm,-,N/A,,Clear,0,2013-07-13 13:15:00
6:35 AM,33.8,26.6,75,30.22,10.0,Calm,Calm,-,N/A,,Clear,0,2013-07-13 13:35:00
6:45 AM,37.4,26.6,65,30.22,10.0,Calm,Calm,-,N/A,,Clear,0,2013-07-13 13:45:00
7:45 AM,44.6,26.6,49,30.23,10.0,Calm,Calm,-,N/A,,Clear,0,2013-07-13 14:45:00
8:45 AM,53.6,26.6,35,30.24,10.0,Calm,Calm,-,N/A,,Clear,0,2013-07-13 15:45:00
9:45 AM,64.4,30.2,28,30.22,10.0,Calm,Calm,-,N/A,,Clear,0,2013-07-13 16:45:00
10:45 AM,71.6,23.0,16,30.22,10.0,Calm,Calm,-,N/A,,Clear,0,2013-07-13 17:45:00
11:45 AM,75.2,19.4,12,30.22,10.0,SW,12.7,18.4,N/A,,Clear,230,2013-07-13 18:45:00
12:45 PM,77.0,19.4,12,30.22,10.0,SSW,11.5,16.1,N/A,,Clear,210,2013-07-13 19:45:00
1:55 PM,77.0,24.8,14,30.21,10.0,WNW,15.0,21.9,N/A,,Clear,290,2013-07-13 20:55:00
2:55 PM,77.0,24.8,14,30.21,10.0,WNW,6.9,19.6,N/A,,Clear,300,2013-07-13 21:55:00
3:55 PM,77.0,28.4,17,30.19,10.0,WSW,10.4,19.6,N/A,,Clear,240,2013-07-13 22:55:00
4:50 PM,77.0,30.2,18,30.19,10.0,West,15.0,24.2,N/A,,Clear,280,2013-07-13 23:50:00
5:45 PM,75.2,32.0,21,30.19,10.0,West,16.1,21.9,N/A,,Clear,280,2013-07-14 00:45:00
5:55 PM,75.2,32.0,21,30.18,10.0,WNW,15.0,21.9,N/A,,Clear,290,2013-07-14 00:55:00
6:15 PM,75.2,32.0,21,30.19,10.0,West,15.0,20.7,N/A,,Clear,280,2013-07-14 01:15:00
6:35 PM,73.4,32.0,22,30.19,10.0,West,11.5,20.7,N/A,,Clear,270,2013-07-14 01:35:00
6:55 PM,73.4,32.0,22,30.19,10.0,West,11.5,20.7,N/A,,Clear,270,2013-07-14 01:55:00
7:15 PM,71.6,32.0,23,30.20,10.0,West,10.4,-,N/A,,Clear,260,2013-07-14 02:15:00
7:35 PM,71.6,32.0,23,30.21,10.0,West,8.1,16.1,N/A,,Clear,260,2013-07-14 02:35:00
7:55 PM,69.8,32.0,25,30.21,10.0,West,9.2,-,N/A,,Clear,270,2013-07-14 02:55:00
8:15 PM,68.0,32.0,26,30.22,10.0,WSW,5.8,-,N/A,,Clear,250,2013-07-14 03:15:00
8:35 PM,66.2,32.0,28,30.22,10.0,West,6.9,-,N/A,,Clear,280,2013-07-14 03:35:00
8:55 PM,66.2,33.8,30,30.22,7.0,WNW,6.9,-,N/A,,Clear,290,2013-07-14 03:55:00
9:15 PM,64.4,33.8,32,30.23,10.0,SSW,4.6,-,N/A,,Clear,210,2013-07-14 04:15:00
9:35 PM,59.0,33.8,39,30.24,10.0,Calm,Calm,-,N/A,,Clear,0,2013-07-14 04:35:00
9:55 PM,57.2,35.6,44,30.25,10.0,SSE,4.6,-,N/A,,Clear,160,2013-07-14 04:55:00
10:15 PM,55.4,35.6,47,30.25,10.0,SE,5.8,-,N/A,,Clear,140,2013-07-14 05:15:00
10:35 PM,51.8,33.8,50,30.25,10.0,SW,3.5,-,N/A,,Clear,220,2013-07-14 05:35:00
10:55 PM,53.6,35.6,51,30.25,10.0,SSE,4.6,-,N/A,,Clear,160,2013-07-14 05:55:00
11:15 PM,51.8,35.6,54,30.25,10.0,Calm,Calm,-,N/A,,Clear,0,2013-07-14 06:15:00
11:35 PM,51.8,35.6,54,30.26,10.0,Calm,Calm,-,N/A,,Clear,0,2013-07-14 06:35:00
11:55 PM,50.0,35.6,58,30.26,10.0,Calm,Calm,-,N/A,,Clear,0,2013-07-14 06:55:00